{"data":{"norad_id":57986,"epoch":"2026-09-21T18:02:54.924576Z","epoch_age_seconds":125624,"freshness":"FRESH","line1":"1 57986U 23152A   26264.75202459  .00006144  00000+0  25717-3 0  9991","line2":"2 57986  35.0019  25.2316 0003819 311.2390  48.7995 15.22891484165170","mean_motion":15.22891484,"eccentricity":0.0003819,"inclination_deg":35.0019,"raan_deg":25.2316,"arg_perigee_deg":311.239,"mean_anomaly_deg":48.7995,"bstar":0.00025717,"rev_number":16517,"period_min":94.556967133188,"perigee_km":494.4985434788,"apogee_km":499.74986798774,"semimajor_km":6875.2612057333,"source":"CELESTRAK","updated_at":"2026-09-22T09:00:26.411885Z"}}